{"data":{"norad_id":63889,"epoch":"2026-09-20T14:25:35.623200Z","epoch_age_seconds":138237,"freshness":"FRESH","line1":"1 63889U 25094AB  26263.60110675  .00006193  00000+0  21967-3 0  9995","line2":"2 63889  70.0009 100.8142 0003034 269.0343  91.0484 15.29587137 76664","mean_motion":15.29587137,"eccentricity":0.0003034,"inclination_deg":70.0009,"raan_deg":100.8142,"arg_perigee_deg":269.0343,"mean_anomaly_deg":91.0484,"bstar":0.00021967,"rev_number":7666,"period_min":94.143051099677,"perigee_km":474.96571643757,"apogee_km":479.12544122641,"semimajor_km":6855.182578832,"source":"CELESTRAK","updated_at":"2026-09-21T09:00:35.142308Z"}}